Miscellaneous Local Product
Issued by NWS Hastings, NE

Home | Current Version | Previous Version | Graphics & Text | Print | Product List | Glossary On
Versions: 1 2 3 4 5 6 7 8 9 10 11 12 13 14 15 16 17 18 19 20 21 22 23 24 25 26 27 28 29 30 31 32 33 34 35 36 37 38 39 40 41 42 43 44 45 46 47 48 49 50
000
AXUS43 KGID 211702
MISGRI

GID CWA HOURLY WEATHER ROUNDUP
NATIONAL WEATHER SERVICE HASTINGS NE
1200 PM CDT THU SEP 21 2017

NOTE: "FAIR" INDICATES FEW OR NO CLOUDS BELOW 12,000 FEET WITH NO
SIGNIFICANT WEATHER AND/OR OBSTRUCTIONS TO VISIBILITY.

...SOUTH CENTRAL NEBRASKA...

CITY           SKY/WX    TMP DP  RH WIND       PRES   REMARKS
GRAND ISLAND   SUNNY     81  67  62 S14       29.79F
HASTINGS       SUNNY     84  60  44 S10       29.79F
KEARNEY        SUNNY     84  57  39 S18G26    29.77F
ORD            SUNNY     76  59  55 SE10      29.76F
YORK           SUNNY     84  66  54 S14       29.80F
AURORA         SUNNY     82  65  55 S14G20    29.79F
LEXINGTON      SUNNY     84  49  30 S21G28    29.76F
HOLDREGE       SUNNY     81  52  36 SE17      29.76F
HEBRON         MOSUNNY   87  71  58 S10G17    29.81F HX  92

...NEBRASKA PANHANDLE...

CITY           SKY/WX    TMP DP  RH WIND       PRES   REMARKS
CHADRON        SUNNY     78  41  26 S12       29.67S
ALLIANCE       SUNNY     70  45  40 VRB7      29.73F
SCOTTSBLUFF    SUNNY     67  44  43 E7        29.73F
SIDNEY         SUNNY     78  38  23 SE7       29.75F

...WESTERN AND NORTH CENTRAL NEBRASKA...

CITY           SKY/WX    TMP DP  RH WIND       PRES   REMARKS
VALENTINE      SUNNY     79  55  43 S20G28    29.71F
AINSWORTH      SUNNY     76  59  55 S15G24    29.73F
ONEILL         SUNNY     76  64  66 SE15G21   29.76F
BROKEN BOW     SUNNY     78  57  48 SE14G23   29.76F
IMPERIAL       SUNNY     78  40  25 S10       29.74F
NORTH PLATTE   SUNNY     79  52  38 S10       29.74F
MCCOOK         SUNNY     82  49  31 SE14      29.75F

...EASTERN NEBRASKA...

CITY           SKY/WX    TMP DP  RH WIND       PRES   REMARKS
NORFOLK        PTSUNNY   78  69  73 SE14      29.77F
SO SIOUX CITY  PTSUNNY   80  71  74 SE16G23   29.80F
TEKAMAH        MOSUNNY   83  71  67 S15G23    29.81F
COLUMBUS       SUNNY     83  70  64 SE13G18   29.79F
ALBION         MOSUNNY   74  68  80 SE9G16    29.79F
OMAHA EPPLEY   MOSUNNY   85  72  65 S17       29.83F HX  91
OFFUTT AFB     MOSUNNY   85  72  65 SE17      29.83F HX  91
MILLARD        PTSUNNY   85  74  68 SE12G20   29.83F HX  93
LINCOLN        SUNNY     87  71  58 S21       29.81F HX  93
NEBRASKA CITY  SUNNY     85  75  71 S16G24    29.85F HX  93
BEATRICE       MOSUNNY   86  73  63 S14       29.83S HX  93
FALLS CITY     SUNNY     86  72  62 S16       29.86S HX  92

...NORTHERN KANSAS...

CITY           SKY/WX    TMP DP  RH WIND       PRES   REMARKS
GOODLAND       SUNNY     85  42  22 S15       29.76F
HILL CITY      SUNNY     88  52  29 S17G24    29.76F
NORTON         SUNNY     88  39  18 SE15G24   29.74F
PHILLIPSBURG   SUNNY     86  55  35 SE13G18   29.76F
SMITH CENTER   SUNNY     82  66  57 SE15      29.79F
HAYS           SUNNY     88  63  43 S13G23    29.79F
RUSSELL        SUNNY     89  65  44 S22       29.78F HX  91
CONCORDIA      SUNNY     85  73  67 S16       29.81F HX  91
SALINA         SUNNY     91  69  48 S16G24    29.81F HX  96
TOPEKA         MOSUNNY   86  75  69 S14       29.88S HX  95



USA.gov is the U.S. government's official web portal to all federal, state and local government web resources and services.